COSMOS 2491 DEB, 44998

Orbit data source: Space-Track

COSMOS 2491 DEB, 44998 is space debris in LEO originally from a launch on Wed, 25 Dec 2013 UTC launched from the Plesetsk Missile And Space Complex (PKMTR). Debris objects in space refer to the collection of defunct objects orbiting the Earth. Examples of debris include non-operational satellites, rocket bodies, and fragments generated from explosions, collisions, or faulty payload assembly.

Loading next visibility...
Identifier
44998, 2013-076S
Orbit
LEO
Country
Flag of CISCIS
Related business
Manufacturer
TsNIIKhM
Mission
Spacecraft
Bus & Motor
Unknown
Mass
Unknown
Launch date (UTC)
2013-12-25 (12 years ago)
Launch vehicle
Unknown
Launch site
Plesetsk Missile And Space Complex (PKMTR)
Object type
Payload
Rocket body
Debris
Shape & HBR
Unknown shape, 0.1 m
Radar Cross Section
Small (<0.1 m²)

Expand to show TLE details & history
Last TLE update: 1 month ago

TLE from 1 month ago
0 COSMOS 2491 DEB
1 44998U 13076S   26085.50409974  .00005088  00000-0  26244-1 0  9990
2 44998  82.4722 164.8433 0069031 341.0402  18.8123 12.67442372286819
Epoch: 2026-03-26T12:05Z
TLE epoch observation values (Epoch: 2026-03-26T12:05:54.217Z)
Latitude
-0.00004°
Longitude
159.41529°
Altitude
1,344.366 km
Speed
7.209 km/s
True Right ascension
10h 59m 22s
True Declination
0° 00' 00"
Sunlit
Object was in full shadow at epoch
Visualization orbit readout
Latitude
Unknown
Longitude
Unknown
Altitude
Unknown
Speed
Unknown
Apparent Right ascension
Unknown
Apparent Declination
Unknown
Sunlit
N/A
Visualization observer readout
Local Sidereal Time
18:12:57
Azimuth
Unknown
Elevation
Unknown
Doppler factor
Unknown
Orbital elements
Apogee altitude
1,443.315 km
Perigee altitude
1,336.071 km
Semi-major axis
7,767.83 km
Eccentricity
0.0069
Inclination
82.4722°
RAAN
164.8433°
Arg. of periapsis
341.0402°
True anomaly
19.06948°
Mean anomaly
18.8123°
Eccentric anomaly
18.94068°
Mean motion
3.17025 °/min
Orbital period
113.56 mins
BSTAR
0.026244
Loading maneuver chart data...
Computing Atmospheric mass density...
Loading historical data...
Loading historical data...
Loading historical data...
Loading historical data...
Loading historical data...
Loading historical data...
Loading historical data...

Documentation

Showing up to 5 results
|